Historique des stations

Station météo de Reugny

Altitude de la station : 96 m







Données météorologiques pour le 20/01/2022
Date
Heure
Températures Humidité Point de rosée Vitesse
du vent
Direction Rafales Windchill Pression Pluviométrie
Cumul
Date
Heure
Températures Humidité Point de rosée Vitesse
du vent
Direction Rafales Windchill Pression Pluviométrie
Cumul
20/01/2022 14:038.3 °C35 %-6.7 °C2 km/hNNO13 km/h8.3 1034 hPa1.2 mm
20/01/2022 14:008.3 °C34 %-6.7 °C-NO16 km/h8.3 1034 hPa1.2 mm
20/01/2022 13:487.9 °C30 %-8.9 °C-N14 km/h7.8 1034 hPa1.2 mm
20/01/2022 13:458.1 °C28 %-9.4 °C-NO16 km/h8.3 1034 hPa1.2 mm
20/01/2022 13:338.7 °C6 %-27.2 °C5 km/hNNO10 km/h8.3 1034 hPa1.2 mm
20/01/2022 13:308.6 °C11 %-20.6 °C-NE16 km/h8.3 1034 hPa1.2 mm
20/01/2022 13:178.5 °C0 %-130.0 °C-NE13 km/h8.3 1034 hPa1.2 mm
20/01/2022 13:148.4 °C0 %-130.0 °C-NE16 km/h8.3 1034 hPa1.2 mm
20/01/2022 13:028.1 °C0 %-130.0 °C-NNO14 km/h8.3 1035 hPa1.2 mm
20/01/2022 12:597.9 °C0 %-130.0 °C11 km/hNE16 km/h5.6 1034 hPa1.2 mm
20/01/2022 12:477.6 °C0 %-130.0 °C-NNE16 km/h7.8 1035 hPa1.2 mm
20/01/2022 12:447.5 °C0 %-130.0 °C8 km/hNE16 km/h6.1 1035 hPa1.2 mm
20/01/2022 12:327.2 °C0 %-130.0 °C3 km/hNNE16 km/h6.7 1035 hPa1.2 mm
20/01/2022 12:297.2 °C0 %-130.0 °C5 km/hN16 km/h6.7 1035 hPa1.2 mm
20/01/2022 12:177.1 °C0 %-130.0 °C-N16 km/h7.2 1035 hPa1.2 mm
20/01/2022 12:147.1 °C0 %-130.0 °C-NNE16 km/h7.2 1035 hPa1.2 mm
20/01/2022 12:036.9 °C0 %-130.0 °C-NE11 km/h7.2 1035 hPa1.2 mm
20/01/2022 12:006.8 °C0 %-130.0 °C-N16 km/h6.7 1035 hPa1.2 mm
20/01/2022 11:486.4 °C0 %-130.0 °C-NE11 km/h6.7 1035 hPa1.2 mm
20/01/2022 11:456.2 °C0 %-130.0 °C11 km/hNE16 km/h3.3 1035 hPa1.2 mm
20/01/2022 11:335.6 °C0 %-130.0 °C-NE10 km/h5.6 1034 hPa1.2 mm
20/01/2022 11:305.5 °C0 %-130.0 °C-N16 km/h5.6 1034 hPa1.2 mm
20/01/2022 11:185.0 °C0 %-130.0 °C-N6 km/h5.0 1035 hPa1.2 mm
20/01/2022 11:154.9 °C0 %-130.0 °C-NNO16 km/h5.0 1034 hPa1.2 mm
20/01/2022 11:034.6 °C0 %-130.0 °C---4.4 1034 hPa1.2 mm
20/01/2022 10:594.6 °C0 %-130.0 °C-NNO16 km/h4.4 1034 hPa1.2 mm
20/01/2022 10:474.1 °C0 %-130.0 °C-NNO13 km/h3.9 1035 hPa1.2 mm
20/01/2022 10:444.0 °C0 %-130.0 °C-N16 km/h3.9 1035 hPa1.2 mm
20/01/2022 10:323.7 °C0 %-130.0 °C3 km/hN11 km/h2.8 1035 hPa1.2 mm
20/01/2022 10:293.6 °C0 %-130.0 °C-NNO16 km/h3.9 1035 hPa1.2 mm
20/01/2022 10:173.4 °C0 %-130.0 °C-NNO13 km/h3.3 1035 hPa1.2 mm
20/01/2022 10:143.4 °C0 %-130.0 °C-NNO16 km/h3.3 1034 hPa1.2 mm
20/01/2022 10:023.3 °C0 %-130.0 °C-NNO8 km/h3.3 1034 hPa1.2 mm
20/01/2022 09:593.3 °C0 %-130.0 °C-NNO16 km/h3.3 1034 hPa1.2 mm
20/01/2022 09:473.2 °C0 %-130.0 °C---3.3 1034 hPa1.2 mm
20/01/2022 09:443.2 °C0 %-130.0 °C-NNO16 km/h3.3 1034 hPa1.2 mm
20/01/2022 09:323.1 °C0 %-130.0 °C---3.3 1034 hPa1.2 mm
20/01/2022 09:293.1 °C0 %-130.0 °C-NNO16 km/h3.3 1034 hPa1.2 mm
20/01/2022 09:172.9 °C0 %-130.0 °C---2.8 1034 hPa1.2 mm
20/01/2022 09:152.9 °C0 %-130.0 °C-NNO16 km/h2.8 1034 hPa1.2 mm
20/01/2022 09:022.9 °C0 %-130.0 °C----1034 hPa1.2 mm
20/01/2022 09:002.9 °C0 %-130.0 °C----1034 hPa1.2 mm
20/01/2022 08:483.0 °C0 %-130.0 °C----1033 hPa1.2 mm
20/01/2022 08:453.1 °C0 %-130.0 °C----1033 hPa1.2 mm
20/01/2022 08:333.1 °C0 %-130.0 °C----1033 hPa1.2 mm
20/01/2022 08:303.2 °C0 %-130.0 °C----1033 hPa1.2 mm
20/01/2022 08:173.1 °C0 %-130.0 °C----1033 hPa1.2 mm
20/01/2022 08:143.1 °C0 %-130.0 °C----1033 hPa1.2 mm
20/01/2022 08:023.3 °C0 %-130.0 °C----1033 hPa1 mm
20/01/2022 07:593.4 °C0 %-130.0 °C----1033 hPa1 mm
20/01/2022 07:473.6 °C0 %-130.0 °C----1033 hPa1 mm
20/01/2022 07:443.6 °C0 %-130.0 °C----1033 hPa1 mm
20/01/2022 07:323.9 °C0 %-130.0 °C----1032 hPa1 mm
20/01/2022 07:294.0 °C0 %-130.0 °C----1032 hPa1 mm
20/01/2022 07:174.3 °C0 %-130.0 °C----1032 hPa1 mm
20/01/2022 07:144.4 °C0 %-130.0 °C----1032 hPa1 mm
20/01/2022 07:024.6 °C0 %-130.0 °C----1032 hPa1 mm
20/01/2022 06:594.7 °C0 %-130.0 °C-N16 km/h4.4 1032 hPa1 mm
20/01/2022 06:474.9 °C0 %-130.0 °C---5.0 1032 hPa1 mm
20/01/2022 06:455.0 °C0 %-130.0 °C-NNE16 km/h5.0 1032 hPa1 mm
20/01/2022 06:325.2 °C0 %-130.0 °C-NNE3 km/h5.0 1032 hPa1 mm
20/01/2022 06:305.2 °C0 %-130.0 °C-NNE16 km/h5.0 1032 hPa1 mm
20/01/2022 06:175.1 °C0 %-130.0 °C---5.0 1032 hPa1 mm
20/01/2022 06:155.1 °C0 %-130.0 °C-NNO16 km/h5.0 1032 hPa1 mm
20/01/2022 06:025.1 °C0 %-130.0 °C---5.0 1032 hPa1 mm
20/01/2022 06:005.1 °C0 %-130.0 °C-NO16 km/h5.0 1032 hPa1 mm
20/01/2022 05:485.2 °C0 %-130.0 °C---5.0 1032 hPa1 mm
20/01/2022 05:455.2 °C0 %-130.0 °C-NO16 km/h5.0 1032 hPa1 mm
20/01/2022 05:325.2 °C0 %-130.0 °C---5.0 1032 hPa1 mm
20/01/2022 05:295.2 °C0 %-130.0 °C-NO16 km/h5.0 1032 hPa1 mm
20/01/2022 05:175.2 °C0 %-130.0 °C---5.0 1032 hPa1 mm
20/01/2022 05:145.2 °C0 %-130.0 °C-NO16 km/h5.0 1032 hPa1 mm
20/01/2022 05:025.2 °C0 %-130.0 °C---5.0 1032 hPa1 mm
20/01/2022 04:595.2 °C0 %-130.0 °C-NO16 km/h5.0 1032 hPa1 mm
20/01/2022 04:475.2 °C0 %-130.0 °C---5.0 1032 hPa1 mm
20/01/2022 04:455.2 °C0 %-130.0 °C-NO16 km/h5.0 1032 hPa1 mm
20/01/2022 04:325.2 °C0 %-130.0 °C---5.0 1032 hPa1 mm
20/01/2022 04:305.2 °C0 %-130.0 °C-NO16 km/h5.0 1032 hPa1 mm
20/01/2022 04:175.2 °C0 %-130.0 °C---5.0 1032 hPa1 mm
20/01/2022 04:125.2 °C0 %-130.0 °C-NO16 km/h5.0 1032 hPa1 mm
20/01/2022 04:025.2 °C0 %-130.0 °C---5.0 1032 hPa1 mm
20/01/2022 03:595.2 °C0 %-130.0 °C-NO16 km/h5.0 1032 hPa1 mm
20/01/2022 03:475.2 °C0 %-130.0 °C---5.0 1032 hPa1 mm
20/01/2022 03:445.1 °C0 %-130.0 °C-NO16 km/h5.0 1032 hPa1 mm
20/01/2022 03:325.1 °C0 %-130.0 °C---5.0 1032 hPa1 mm
20/01/2022 03:295.1 °C0 %-130.0 °C-OSO16 km/h5.0 1032 hPa1 mm
20/01/2022 03:175.1 °C0 %-130.0 °C---5.0 1031 hPa1 mm
20/01/2022 03:145.0 °C0 %-130.0 °C-OSO16 km/h5.0 1031 hPa1 mm
20/01/2022 03:025.1 °C0 %-130.0 °C---5.0 1031 hPa1 mm
20/01/2022 03:005.1 °C0 %-130.0 °C-OSO16 km/h5.0 1031 hPa1 mm
20/01/2022 02:475.0 °C0 %-130.0 °C---5.0 1031 hPa1 mm
20/01/2022 02:455.0 °C0 %-130.0 °C-OSO16 km/h5.0 1031 hPa1 mm
20/01/2022 02:325.0 °C0 %-130.0 °C---5.0 1031 hPa1 mm
20/01/2022 02:305.0 °C0 %-130.0 °C-OSO16 km/h5.0 1031 hPa1 mm
20/01/2022 02:175.0 °C0 %-130.0 °C---5.0 1031 hPa0.8 mm
20/01/2022 02:155.0 °C0 %-130.0 °C-OSO16 km/h5.0 1031 hPa0.8 mm
20/01/2022 02:025.0 °C0 %-130.0 °C---5.0 1032 hPa0.8 mm
20/01/2022 02:005.0 °C0 %-130.0 °C-OSO16 km/h5.0 1032 hPa0.8 mm
20/01/2022 01:475.0 °C0 %-130.0 °C---5.0 1032 hPa0.8 mm
20/01/2022 01:445.0 °C0 %-130.0 °C-OSO16 km/h5.0 1031 hPa0.8 mm
20/01/2022 01:324.9 °C0 %-130.0 °C-OSO8 km/h5.0 1031 hPa0.8 mm
20/01/2022 01:294.9 °C0 %-130.0 °C-OSO16 km/h5.0 1031 hPa0.8 mm
20/01/2022 01:174.9 °C0 %-130.0 °C-OSO10 km/h5.0 1031 hPa0.8 mm
20/01/2022 01:144.9 °C0 %-130.0 °C-OSO16 km/h5.0 1031 hPa0.8 mm
20/01/2022 01:024.9 °C0 %-130.0 °C6 km/hOSO10 km/h3.9 1031 hPa0.8 mm
20/01/2022 00:594.9 °C0 %-130.0 °C5 km/hOSO16 km/h4.4 1031 hPa0.8 mm
20/01/2022 00:474.9 °C0 %-130.0 °C5 km/hOSO10 km/h4.4 1031 hPa0.8 mm
20/01/2022 00:444.9 °C0 %-130.0 °C2 km/hOSO16 km/h5.0 1031 hPa0.8 mm
20/01/2022 00:324.9 °C0 %-130.0 °C-SO11 km/h5.0 1031 hPa0.8 mm
20/01/2022 00:294.9 °C0 %-130.0 °C8 km/hSO16 km/h2.8 1031 hPa0.8 mm
20/01/2022 00:174.9 °C0 %-130.0 °C-OSO10 km/h5.0 1031 hPa0.8 mm
20/01/2022 00:154.9 °C0 %-130.0 °C-OSO16 km/h5.0 1031 hPa0.8 mm
20/01/2022 00:024.9 °C0 %-130.0 °C6 km/hOSO13 km/h3.9 1031 hPa0.8 mm
20/01/2022 00:004.9 °C0 %-130.0 °C3 km/hOSO16 km/h4.4 1031 hPa0.8 mm


Minima :

Température : 2.9 °C
Humidité : 0 %
Point de rosée : -130.0 °C
Vent moyen : 2 km/h
Windchill : 2.8
Pression atm. : 1031 hPa
Maxima :

Température : 8.7 °C
Humidité : 35 %
Point de rosée : -6.7 °C
Vent moyen : 11 km/h
Windchill : 8.3
Pression atm. : 1035 hPa
Rafales max : 16 km/h
Cumul de pluie sur 24H : 1.2 mm

Reugny est une commune du département Indre-et-Loire (37).
La station météorologique du réseau de l'association la plus proche de Reugny est celle de Véretz



Icône Facebook Association Météo Centre Icône Twitter Association Météo Centre Icône Chaîne Youtube Association Météo Centre Icône contact Association Météo Centre Icône Insta Association Météo Centre